Zurück zum Katalog

STARLINK-37851

AktivKommunikationSSO
NORAD 69658·PAYLOAD·🇺🇸 United States

Gestartet Jun 21, 2026 von Vandenberg Space Force Base

Loading…

Nächste Überflüge (nächste 24 Stunden)

TLE

AktuellSource: CelesTrak SupGP

Epoche: Sep 14, 2026, 23:37 UTC

1 69658C 26143K   26257.98451389  .00041433  00000+0  12863-2 0  2572
2 69658  97.2841 301.2865 0000879  90.0815 117.8645 15.33416067    18

Verfolge STARLINK-37851 in Echtzeit mit AllMySat

Download on the App Store